Weather reports worldwide

Advertisment
Gibraltar, United Kingdom (8495): temperature & dewpoint: 09.12.2019 00:00:00 - 15.12.2019 00:00:00 (CET)Gibraltar, United Kingdom (8495): wind speed & gusts: 09.12.2019 00:00:00 - 15.12.2019 00:00:00 (CET)Gibraltar, United Kingdom (8495): wind direction: 09.12.2019 00:00:00 - 15.12.2019 00:00:00 (CET)Gibraltar, United Kingdom (8495): reduced air pressure: 09.12.2019 00:00:00 - 15.12.2019 00:00:00 (CET)Gibraltar, United Kingdom (8495): visibility: 09.12.2019 00:00:00 - 15.12.2019 00:00:00 (CET)
Date & Time tt [°C] td [°C] ff [km/h] ff [kn] fx [km/h] fx [kn] dd ppp [hPa] vv [km]
15.12.2019 00:00:00 14,1 10,0 35 19 - - W 1019,7 23
14.12.2019 23:00:00 14,2 9,8 29 16 - - W 1020,0 23
14.12.2019 22:00:00 14,7 10,4 35 19 46 25 W 1020,0 23
14.12.2019 21:00:00 15,1 9,8 35 19 - - W 1020,2 22
14.12.2019 20:00:00 15,4 9,1 28 15 - - W 1020,3 23
14.12.2019 19:00:00 15,4 9,3 29 16 - - W 1020,3 23
14.12.2019 18:00:00 15,8 9,1 35 19 55 30 W 1020,1 21
14.12.2019 17:00:00 16,6 9,3 31 17 52 28 W 1020,2 50
14.12.2019 16:00:00 16,9 9,2 37 20 54 29 W 1019,9 50
14.12.2019 15:00:00 17,2 9,4 31 17 54 29 W 1020,0 50
14.12.2019 14:00:00 16,7 9,9 34 18 52 28 W 1020,6 50
14.12.2019 13:00:00 16,6 9,8 26 14 48 26 W 1021,4 50
14.12.2019 12:00:00 16,2 9,6 29 16 46 25 W 1022,1 50
14.12.2019 11:00:00 15,5 10,3 22 12 - - W 1022,5 50
14.12.2019 10:00:00 14,4 11,0 18 10 - - W 1022,5 50
14.12.2019 09:00:00 14,0 10,4 21 11 - - W 1022,4 50
14.12.2019 08:00:00 13,9 10,3 22 12 - - WSW 1021,9 20
14.12.2019 07:00:00 14,0 11,4 29 16 - - W 1021,5 20
14.12.2019 06:00:00 14,3 11,9 31 17 - - W 1021,5 18
14.12.2019 05:00:00 14,6 11,5 35 19 - - W 1021,8 19
14.12.2019 04:00:00 14,9 12,0 29 16 - - W 1022,3 18
14.12.2019 03:00:00 15,4 12,3 28 15 - - W 1022,8 18
14.12.2019 02:00:00 15,9 12,5 26 14 - - W 1022,9 17
14.12.2019 01:00:00 16,1 13,1 29 16 - - W 1023,4 15
14.12.2019 00:00:00 16,3 12,1 21 11 - - WSW 1023,6 17
13.12.2019 23:00:00 15,8 12,9 22 12 - - W 1023,5 14
13.12.2019 22:00:00 15,9 13,0 26 14 - - W 1023,5 14
13.12.2019 21:00:00 16,1 12,8 28 15 - - W 1023,7 14
13.12.2019 20:00:00 16,2 12,7 26 14 - - W 1023,4 30
13.12.2019 19:00:00 16,8 12,2 24 13 - - W 1023,2 30
13.12.2019 18:00:00 16,9 12,6 24 13 - - W 1023,2 40
13.12.2019 17:00:00 17,3 11,8 28 15 - - W 1023,1 40
13.12.2019 16:00:00 17,9 12,1 31 17 - - W 1023,2 40
13.12.2019 15:00:00 17,8 11,8 34 18 - - W 1023,6 10
13.12.2019 14:00:00 17,8 12,5 29 16 - - W 1024,3 10
13.12.2019 13:00:00 17,3 13,0 22 12 - - WSW 1025,3 10
13.12.2019 12:00:00 16,7 13,0 22 12 - - WSW 1025,8 10
13.12.2019 11:00:00 16,4 12,4 35 19 - - W 1025,6 10
13.12.2019 10:00:00 15,9 13,1 35 19 55 30 W 1024,9 30
13.12.2019 09:00:00 16,0 13,1 31 17 50 27 W 1024,3 25
13.12.2019 08:00:00 15,7 13,5 28 15 - - W 1024,0 30
13.12.2019 07:00:00 15,7 13,3 29 16 57 31 W 1024,0 30
13.12.2019 06:00:00 15,9 13,3 37 20 55 30 W 1023,4 25
13.12.2019 05:00:00 15,6 13,4 46 25 63 34 W 1023,5 15
13.12.2019 04:00:00 15,5 12,8 39 21 59 32 W 1023,6 19
13.12.2019 03:00:00 15,8 12,0 46 25 67 36 W 1023,7 15
13.12.2019 02:00:00 15,9 11,9 44 24 65 35 W 1024,0 16
13.12.2019 01:00:00 15,8 11,5 48 26 57 31 W 1024,5 17
13.12.2019 00:00:00 15,8 11,1 37 20 50 27 W 1025,1 17
12.12.2019 23:00:00 15,7 10,9 35 19 46 25 W 1025,1 19
12.12.2019 22:00:00 15,5 10,9 37 20 46 25 W 1025,1 19
12.12.2019 21:00:00 15,5 10,5 37 20 48 26 W 1025,2 20
12.12.2019 20:00:00 15,5 10,2 29 16 - - W 1025,5 40
12.12.2019 19:00:00 15,3 9,1 28 15 48 26 W 1025,4 10
12.12.2019 18:00:00 15,5 9,0 26 14 48 26 W 1025,4 40
12.12.2019 17:00:00 15,7 8,3 34 18 54 29 W 1025,9 50
12.12.2019 16:00:00 15,8 8,2 24 13 46 25 W 1025,4 50
12.12.2019 15:00:00 15,4 8,3 24 13 46 25 WNW 1026,2 45
12.12.2019 14:00:00 15,1 8,3 28 15 54 29 W 1026,7 50
12.12.2019 13:00:00 14,3 7,9 29 16 52 28 W 1027,7 50
12.12.2019 12:00:00 13,7 6,0 29 16 48 26 W 1028,7 50
12.12.2019 11:00:00 12,6 5,1 28 15 46 25 W 1027,6 50
12.12.2019 10:00:00 12,0 4,9 28 15 46 25 W 1028,0 50
12.12.2019 09:00:00 12,2 5,0 24 13 48 26 W 1027,1 40
12.12.2019 08:00:00 12,1 5,5 34 18 52 28 W 1026,5 40
12.12.2019 07:00:00 12,1 6,0 35 19 52 28 W 1026,2 40
12.12.2019 06:00:00 12,3 5,7 34 18 52 28 W 1026,4 40
12.12.2019 05:00:00 12,1 6,4 41 22 48 26 W 1026,2 21
12.12.2019 04:00:00 12,3 7,6 39 21 54 29 W 1026,4 21
12.12.2019 03:00:00 13,0 8,1 37 20 46 25 W 1025,9 18
12.12.2019 02:00:00 13,4 7,9 39 21 46 25 W 1026,3 21
12.12.2019 01:00:00 13,5 7,0 22 12 46 25 WSW 1026,7 21
12.12.2019 00:00:00 13,2 9,8 39 21 46 25 W 1026,4 17
11.12.2019 23:00:00 14,0 10,3 28 15 - - W 1026,8 19
11.12.2019 22:00:00 14,5 10,0 26 14 - - W 1026,9 19
11.12.2019 21:00:00 15,2 11,1 29 16 - - W 1027,1 17
11.12.2019 20:00:00 15,6 11,7 26 14 - - W 1027,0 18
11.12.2019 19:00:00 15,9 12,1 31 17 52 28 WNW 1026,2 17
11.12.2019 18:00:00 16,4 12,4 37 20 48 26 W 1026,1 20
11.12.2019 17:00:00 17,9 10,9 21 11 - - W 1025,3 40
11.12.2019 16:00:00 18,4 11,0 26 14 - - W 1025,0 40
11.12.2019 15:00:00 18,5 10,8 26 14 - - W 1024,9 10
11.12.2019 14:00:00 17,5 10,9 28 15 48 26 W 1025,9 50
11.12.2019 13:00:00 17,1 10,1 26 14 48 26 W 1026,7 50
11.12.2019 12:00:00 17,1 8,5 26 14 - - W 1026,9 60
11.12.2019 11:00:00 16,9 8,7 24 13 - - W 1026,8 60
11.12.2019 10:00:00 16,3 9,8 26 14 - - WSW 1025,9 60
11.12.2019 09:00:00 15,2 12,1 22 12 - - W 1025,6 50
11.12.2019 08:00:00 14,4 11,8 16 9 - - W 1025,3 50
11.12.2019 07:00:00 14,4 11,0 9 5 - - W 1025,3 50
11.12.2019 06:00:00 14,1 11,6 21 11 - - WSW 1025,0 17
11.12.2019 05:00:00 14,3 11,2 22 12 - - W 1024,8 17
11.12.2019 04:00:00 14,6 10,3 24 13 - - WSW 1024,8 20
11.12.2019 03:00:00 14,5 10,4 34 18 46 25 W 1025,0 19
11.12.2019 02:00:00 14,5 9,7 35 19 - - W 1025,2 14
11.12.2019 01:00:00 14,2 9,7 24 13 - - WSW 1025,3 13
11.12.2019 00:00:00 15,1 8,8 26 14 - - WSW 1025,3 14
10.12.2019 23:00:00 15,0 9,0 21 11 - - WSW 1025,3 16
10.12.2019 22:00:00 14,7 9,9 24 13 - - WSW 1025,7 15
10.12.2019 21:00:00 16,2 7,7 21 11 - - WSW 1025,7 17
10.12.2019 20:00:00 16,6 8,1 18 10 - - SW 1025,6 40
10.12.2019 19:00:00 16,6 9,0 16 9 - - WSW 1025,2 40
10.12.2019 18:00:00 17,2 10,9 16 9 - - SW 1025,1 40
10.12.2019 17:00:00 18,3 11,8 16 9 - - SW 1025,1 40
10.12.2019 16:00:00 18,8 11,3 18 10 - - W 1024,7 40
10.12.2019 15:00:00 19,1 12,1 16 9 - - SSW 1025,2 40
10.12.2019 14:00:00 18,3 11,4 16 9 - - SW 1026,2 50
10.12.2019 13:00:00 17,9 11,4 11 6 - - SW 1027,2 50
10.12.2019 12:00:00 15,1 10,9 11 6 - - WSW 1027,9 60
10.12.2019 11:00:00 13,6 10,3 9 5 - - WSW 1028,0 60
10.12.2019 10:00:00 11,5 9,8 15 8 - - W 1027,2 70
10.12.2019 09:00:00 11,5 10,0 18 10 - - W 1027,1 60
10.12.2019 08:00:00 11,7 10,2 16 9 - - W 1027,0 50
10.12.2019 07:00:00 12,2 10,2 11 6 - - WSW 1027,1 50
10.12.2019 06:00:00 12,7 10,5 15 8 - - W 1026,7 11
10.12.2019 05:00:00 12,9 10,8 15 8 - - W 1027,0 16
10.12.2019 04:00:00 12,9 10,7 18 10 - - W 1027,2 18
10.12.2019 03:00:00 13,6 10,9 15 8 - - WSW 1027,2 19
10.12.2019 02:00:00 13,8 10,9 18 10 - - W 1027,4 19
10.12.2019 01:00:00 13,8 10,8 18 10 - - WSW 1027,9 19
10.12.2019 00:00:00 14,4 11,0 16 9 - - SW 1028,0 20
09.12.2019 23:00:00 14,8 11,2 13 7 - - WSW 1028,2 20
09.12.2019 22:00:00 15,4 11,4 16 9 - - WSW 1028,3 21
09.12.2019 21:00:00 16,0 11,7 21 11 - - WSW 1027,7 21
09.12.2019 20:00:00 16,2 12,4 26 14 - - W 1027,8 20
09.12.2019 19:00:00 16,9 12,2 29 16 - - W 1027,5 20
09.12.2019 18:00:00 17,6 12,5 24 13 - - W 1027,0 50
09.12.2019 17:00:00 17,9 13,0 26 14 - - W 1026,9 50
09.12.2019 16:00:00 18,5 12,7 28 15 46 25 W 1026,7 50
09.12.2019 15:00:00 18,8 12,5 26 14 - - W 1027,0 50
09.12.2019 14:00:00 19,7 12,7 26 14 - - W 1027,5 50
09.12.2019 13:00:00 18,7 12,7 24 13 - - W 1028,4 50
09.12.2019 12:00:00 17,8 12,9 22 12 - - W 1029,2 50
09.12.2019 11:00:00 17,3 12,4 21 11 - - W 1029,2 50
09.12.2019 10:00:00 15,7 12,8 24 13 - - W 1028,7 50
09.12.2019 09:00:00 14,5 12,2 13 7 - - SW 1028,4 15
09.12.2019 08:00:00 14,8 12,6 18 10 - - W 1027,7 15
09.12.2019 07:00:00 14,7 12,7 16 9 - - W 1027,6 15
09.12.2019 06:00:00 15,1 12,8 31 17 - - WNW 1027,1 15
09.12.2019 05:00:00 15,3 13,0 22 12 - - W 1027,1 14
09.12.2019 04:00:00 15,2 11,9 16 9 - - WSW 1027,3 16
09.12.2019 03:00:00 15,0 11,4 21 11 - - W 1027,4 16
09.12.2019 02:00:00 15,1 10,4 29 16 - - W 1027,7 15
09.12.2019 01:00:00 14,6 10,4 26 14 - - W 1027,7 14
09.12.2019 00:00:00 14,9 10,6 21 11 - - W 1028,0 16

tt = temperature
td = dewpoint
ff = wind speed
fx = gusts
dd = wind direction
ppp = reduced air pressure
vv = visibility

Next stations